Tracking 20241 objects as of 28-Jan-2020
HD Live streaming from Space Station
objects crossing your sky now

COSMOS 977

Track COSMOS 977 now!
10-day predictions
COSMOS 977 is classified as:


NORAD ID: 10584
Int'l Code: 1978-005B
Perigee: 1,407.1 km
Apogee: 1,470.1 km
Inclination: 74.0 °
Period: 114.5 minutes
Semi major axis: 7809 km
RCS: 0.6664 m2 (medium)
Launch date: January 10, 1978
Source: Commonwealth of Independent States (former USSR) (CIS)
Launch site: PLESETSK MISSILE AND SPACE COMPLEX (PKMTR)
aabbcc
Your satellite tracking list
Your tracking list is empty




NASA's NSSDC Master Catalog

Two Line Element Set (TLE):
1 10584U 78005B   20028.52755090 -.00000011 +00000-0 +28088-4 0  9996
2 10584 074.0284 244.4066 0040312 059.6208 310.3532 12.57944612918243
Source of the keplerian elements: AFSPC